• Processing (Info)

  • MPEC 2011-Y46 : 2011 YV15

    The following Minor Planet Electronic Circular may be linked-to from your own Web pages, but must not otherwise be redistributed electronically.

    A form allowing access to any MPEC is at the bottom of this page.


    Read MPEC 2011-Y45 Read MPEC 2011-Y47


    M.P.E.C. 2011-Y46                                Issued 2011 Dec. 28, 15:36 UT
    
         The Minor Planet Electronic Circulars contain information on unusual
             minor planets and routine data on comets.  They are published
       on behalf of Commission 20 of the International Astronomical Union by the
              Minor Planet Center, Smithsonian Astrophysical Observatory,
                              Cambridge, MA 02138, U.S.A.
    
                 Prepared using the Tamkin Foundation Computer Network
    
                                  MPC@CFA.HARVARD.EDU
                URL https://www.minorplanetcenter.net/    ISSN 1523-6714
    
                                       2011 YV15
    
    Additional Observations:
         K11Y15V |C2011 12 28.31425 10 28 36.99 +22 34 45.7          18.5 VoEY046807
         K11Y15V |C2011 12 28.31774 10 28 37.46 +22 34 44.0          18.6 VoEY046807
         K11Y15V |C2011 12 28.32123 10 28 37.93 +22 34 42.1          18.5 VoEY046807
         K11Y15V |C2011 12 28.32472 10 28 38.39 +22 34 40.4          18.5 VoEY046807
         K11Y15V |C2011 12 28.32821 10 28 38.86 +22 34 38.5          18.5 VoEY046807
         K11Y15V |C2011 12 28.33171 10 28 39.34 +22 34 36.6          18.5 VoEY046807
    
    Observer details:
    807 Cerro Tololo.  Observers R. Holmes, T. Linder, V. Hoette.  Measurers
        R. Holmes, T. Linder.  0.41-m f/11 Ritchey-Chretien + CCD.
    
    Orbital elements:
    2011 YV15                                                Earth MOID = 0.2987 AU
    Epoch 2012 Mar. 14.0 TT = JDT 2456000.5                 MPC
    M   3.06459              (2000.0)            P               Q
    n   0.21154945     Peri.  162.99996     -0.96417811     -0.26523931
    a   2.7895112      Node     1.62757     +0.22971269     -0.84048356
    e   0.5378009      Incl.    5.95204     +0.13263726     -0.47247803
    P   4.66           H   17.0           G   0.15           U   8
    Residuals in seconds of arc
    111225 703  0.4-  0.4+    111226 718  0.1-  0.1+    111227 C32  0.2-  0.1+
    111225 703  0.4-  0.4-    111226 718  0.2-  0.2-    111227 C32  0.1+  0.3+
    111225 703  0.0   0.0     111227 I89  0.3+  0.2+    111227 C32  0.2-  0.1-
    111225 703  0.1-  0.8-    111227 I89  0.4+  0.2+    111227 C32  0.1+  0.2-
    111225 H21  0.1+  0.1-    111227 I89  0.1+  0.2+    111227 104  0.0   0.5+
    111225 H21  0.2+  0.2-    111227 I89  0.3+  0.6+    111227 104  0.1-  0.1+
    111225 H21  0.2+  0.0     111227 I89  0.3+  0.3+    111227 104  0.3+  0.2-
    111225 H21  0.2+  0.2-    111227 854  1.5+  0.0     111228 235  0.1-  0.3-
    111226 I93  0.1+  0.1+    111227 854  0.5+  0.5+    111228 235  0.2-  0.3-
    111226 I93  0.2+  0.1+    111227 854  0.8+  0.7+    111228 235  0.2-  0.3-
    111226 I93  0.0   0.2-    111227 291  0.1-  0.1-    111228 807  0.0   0.3-
    111226 204  0.0   0.1-    111227 291  0.1-  0.0     111228 807  0.0   0.2-
    111226 204  0.2+  0.1+    111227 291  0.0   0.2-    111228 807  0.0   0.3-
    111226 204  0.0   0.1+    111227 H06  1.2-  1.7+    111228 807  0.1-  0.1-
    111226 718  0.0   0.1-    111227 H06  0.4-  0.0     111228 807  0.1-  0.2-
    111226 718  0.8-  0.4+    111227 H06  0.4-  0.7-    111228 807  0.1+  0.3-
    
    Ephemeris:
    2011 YV15                a,e,i = 2.79, 0.54, 6                   q = 1.2893
    Date    TT    R. A. (2000) Decl.     Delta      r     Elong.  Phase     V
    2011 11 28    09 17 07.7 +26 04 59   0.9798  1.6226   111.2    34.5    19.4
    ...
    2011 12 13    09 52 35.8 +24 34 17   0.8045  1.5360   118.0    34.5    18.9
    ...
    2011 12 21    10 11 29.6 +23 35 37   0.7212  1.4931   121.5    34.2    18.6
    ...
    2011 12 27    10 25 33.1 +22 46 09   0.6637  1.4626   124.1    33.8    18.3
    2011 12 28    10 27 52.8 +22 37 23   0.6546  1.4577   124.5    33.8    18.3
    2011 12 29    10 30 12.2 +22 28 28   0.6455  1.4529   124.9    33.7    18.3
    ...
    2012 01 04    10 44 01.5 +21 31 22   0.5938  1.4248   127.5    33.2    18.0
    ...
    2012 01 12    11 02 01.8 +20 04 26   0.5315  1.3907   130.9    32.3    17.7
    ...
    2012 01 27    11 33 25.1 +16 40 59   0.4355  1.3384   137.5    29.8    17.1
    
    A. U. Tomatic                (C) Copyright 2011 MPC           M.P.E.C. 2011-Y46
    

    Read MPEC 2011-Y45 Read MPEC 2011-Y47


    MPEC number:

    Enter an MPEC number in one of the following forms:

    • 1997-B01 (the full form)
    • J97B01 (the packed version of the full form)
    • B01 (the abbreviated form)